Tracking 20232 objects as of 18-Jan-2020
HD Live streaming from Space Station
objects crossing your sky now

FENGYUN 1C DEB

Track FENGYUN 1C DEB now!
10-day predictions


NORAD ID: 31899
Int'l Code: 1999-025CLA
Perigee: 836.7 km
Apogee: 1,145.8 km
Inclination: 102.1 °
Period: 104.8 minutes
Semi major axis: 7362 km
RCS: 0.0071 m2 (small)
Launch date: May 10, 1999
Source: People's Republic of China (PRC)
Launch site: Taiyaun Space Center, China (TSC)

Note: This is SATELLITE DEBRIS
aabbcc
Your satellite tracking list
Your tracking list is empty




NASA's NSSDC Master Catalog

Two Line Element Set (TLE):
1 31899U 99025CLA 20017.29592005 +.00000312 +00000-0 +34174-3 0  9995
2 31899 102.0912 193.1424 0209886 229.7669 128.4942 13.74320198378708
Source of the keplerian elements: AFSPC